Regional Weather Roundup
Issued by NWS

Home | Current Version | Previous Version | Text Only | Print | Product List | Glossary Off
Versions: 1 2 3 4 5 6 7 8 9 10 11 12 13 14 15 16 17 18 19 20 21 22 23 24 25 26 27 28 29 30 31 32 33 34 35 36 37 38 39 40 41 42 43 44 45 46 47 48 49 50

000
ASUS43 KLMK 222210
RWRKY
KENTUCKY REGIONAL WEATHER ROUNDUP
NATIONAL WEATHER SERVICE LOUISVILLE KY
600 PM EDT THU JUN 22 2017

NOTE "FAIR" INDICATES FEW OR NO CLOUDS BELOW 12,000 FEET
WITH NO SIGNIFICANT WEATHER AND/OR OBSTRUCTIONS TO VISIBILITY.

KYZ001>023-026-027-061>063-070>075-222300-
WESTERN AND SOUTH CENTRAL KENTUCKY

CITY           SKY/WX    TMP DP  RH WIND       PRES   REMARKS
PADUCAH        PTSUNNY   82  74  76 E5        29.78F
HENDERSON      CLOUDY    74  72  93 SE6       29.85S
OWENSBORO      LGT RAIN  74  72  93 SE12      29.86F
HOPKINSVILLE   PTSUNNY   82  75  78 SE8       29.83F
BOWLING GREEN  CLOUDY    77  75  93 S9        29.89F
GLASGOW        CLOUDY    73  73 100 S6        29.91F
$$

KYZ024-025-028>034-038-045-046-053-222300-
NORTH CENTRAL KENTUCKY

CITY           SKY/WX    TMP DP  RH WIND       PRES   REMARKS
LOUISVILLE/SDF LGT RAIN  75  72  90 SE10      29.91F
LOUISVILLE/LOU LGT RAIN  75  73  93 SE6       29.92F
FORT KNOX      LGT RAIN  71  71  99 SE9       29.90F FOG
$$

KYZ035>037-039>044-047>052-055>060-089>105-222300-
NORTHEAST KENTUCKY

CITY           SKY/WX    TMP DP  RH WIND       PRES   REMARKS
LEXINGTON      RAIN      73  69  87 SE13      29.97F
COVINGTON      CLOUDY    76  68  76 S10       29.94F
FRANKFORT      RAIN      73  69  87 SE9       29.94F FOG
$$

KYZ054-064>069-076>088-106>120-222300-
SOUTHEAST KENTUCKY

CITY           SKY/WX    TMP DP  RH WIND       PRES   REMARKS
JACKSON        CLOUDY    71  69  93 SE3       30.03F
LONDON         LGT RAIN  72  68  87 E9        29.99F
SOMERSET       RAIN      70  70 100 E5        29.98F
MIDDLESBORO    RAIN      73  70  93 CALM      30.03F
MONTICELLO     LGT RAIN  71  70  96 SE9       29.98F
$$





USA.gov is the U.S. government's official web portal to all federal, state and local government web resources and services.